Regional Weather Roundup
Issued by NWS Charleston, SC

Current Version | Previous Version | Text Only | Print | Product List | Glossary Off
Versions: 1 2 3 4 5 6 7 8 9 10 11 12 13 14 15 16 17 18 19 20 21 22 23 24 25 26 27 28 29 30 31 32 33 34 35 36 37 38 39 40 41 42 43 44 45 46 47 48 49 50

000
ASUS42 KCHS 311927
RWRCHS

REGIONAL WEATHER ROUNDUP
NATIONAL WEATHER SERVICE CHARLESTON SC
300 PM EDT FRI JUL 31 2015

NOTE: "FAIR" INDICATES FEW OR NO CLOUDS BELOW 12,000 FEET WITH NO
SIGNIFICANT WEATHER AND/OR OBSTRUCTIONS TO VISIBILITY.

NOT ALL STATIONS ARE QUALITY CONTROLLED BY THE NATIONAL
WEATHER SERVICE. USE DATA WITH CAUTION...ESPECIALLY
DEWPOINT OBSERVATIONS.

SCZ027-030-031-034>040-042>050-312000-
...SOUTHEAST SOUTH CAROLINA...

CITY           SKY/WX    TMP DP  RH WIND       PRES   REMARKS
N CHARLESTON   PTSUNNY   89  76  65 S8        29.90F HX 100
WATERFRONT PRK   N/A     84  77  79 S8        29.90F HX  94
MOUNT PLEASANT   N/A     86  79  79 S7        29.91F HX  99
JOHNS ISLAND   MOCLDY    86  79  79 S9        29.91F HX  99
PINOPOLIS      NOT AVBL
MONCKS CORNER  FAIR      91  75  59 NE6       29.90F HX 102
SUMMERVILLE    FAIR      91  77  62 CALM      29.90F HX 105
BEAUFORT MCAS  CLOUDY    84  77  79 S8        29.91F HX  94
BEAUFORT ARPT  FAIR      82  77  83 SW7       29.90F HX  91
HILTON HEAD IS PTSUNNY   81  73  78 S6        29.93F
WALTERBORO     CLOUDY    93  77  59 NE3       29.89F HX 107
ALLENDALE      MOCLDY    93  75  55 NE3       29.88F HX 104

...SOUTHERN MIDLANDS AND PEE DEE...

CITY           SKY/WX    TMP DP  RH WIND       PRES   REMARKS
GEORGETOWN     NOT AVBL
KINGSTREE      NOT AVBL
ORANGEBURG     MOSUNNY   93  68  43 VRB6      29.91F HX  97
BARNWELL       FAIR      93  73  52 E6        29.90F HX 102
AIKEN          FAIR      91  61  35 E9        29.95F HX  91
MANNING        RAIN      88  68  51 S3        29.91F HX  91
COLUMBIA       MOSUNNY   94  62  34 E3        29.91F HX  94
SUMTER         SUNNY     95  67  40 E7        29.90F HX  99
FLORENCE       PTSUNNY   92  68  45 E3        29.91F HX  96
MYRTLE BEACH   MOSUNNY   91  75  59 S12       29.92F HX 102
N MYRTLE BEACH PTSUNNY   87  77  72 S10       29.91F HX  99

$$

GAZ063-065-086>088-099>101-113>116-118-119-134>141-150-312000-
...SOUTHEAST GEORGIA...

CITY           SKY/WX    TMP DP  RH WIND       PRES   REMARKS
SAVANNAH ARPT  TSTM      75  70  83 N17       29.95R
HUNTER AAF     CLOUDY    84  79  84 VRB1      29.91F HX  96
FORT STEWART   PTSUNNY   86  75  70 S12G25    29.89F THUNDER HX  95
STATESBORO     TSTM      76  76 100 SE17G25   29.95R
SYLVANIA       MOCLDY    86  77  75 S9G17     29.93R HX  97
CLAXTON        CLOUDY    82  79  89 E8        29.91R THUNDER HX  93

...CSRA...CENTRAL AND FAR SOUTHEAST GEORGIA...

CITY           SKY/WX    TMP DP  RH WIND       PRES   REMARKS
THOMSON        MOSUNNY   94  72  48 NE8       29.95F HX 102
AUGUSTA-BUSH   SUNNY     94  67  41 VRB7G18   29.90F HX  97
AUGUSTA-DANIEL SUNNY     92  67  43 SE8       29.93F HX  95
SWAINSBORO     MOCLDY   N/A N/A N/A CALM      29.92F
VIDALIA        PTSUNNY   84  73  70 NE7       29.91F HX  91
EASTMAN        LGT RAIN  86  80  82 CALM      29.91F HX 100
HAZLEHURST     FAIR      89  77  68 CALM      29.89F HX 100
ALMA           PTSUNNY   90  74  59 S8        29.91F HX  99
WAYCROSS       MOSUNNY   94  78  59 S3        29.90F HX 109
JESUP          MOCLDY    93  77  59 S3        29.90F HX 107
BAXLEY         FAIR      93  75  55 SW6       29.89F THUNDER HX 104
BRUNSWICK      PTSUNNY   91  77  62 S10       29.91F HX 105
SAINT SIMONS   CLOUDY    88  77  69 SE9       29.92F HX 100

$$

SCZ027-028-034-036>038-045-046-048>050-GAZ119-141-312000-
...LAKE AND SUPPLEMENTAL COASTAL OBSERVATIONS...

STATION/POSITION TIME  TEMP    WIND        PRES    WAVE   SWELL
                       AIR SEA DIR/SP/G            HT/PER HT/PER/DIR
                 (UTC) (F)     (DEG/KT/KT) (MB)    (FT/S) (FT/S/D)
UPR LAKE MARION  NOT AVBL
WINYAH BAY       1800   85     110/  3     1012.0
LAKE MURRAY      1800   87     110/  5/  7 1013.2F
ACE BASIN NERRS  1800   88     130/  1     1014.0
FORT PULASKI     1900   82 87  160/  2/  4 1013.7F
SAPELO ISLAND    1800   90     160/  9     1014.0S

$$

ANZ835-935-AMZ111-154-330-350-352-354-370-450-454-472-312000-
...C-MAN AND BUOY OBSERVATIONS...

STATION/POSITION TIME  TEMP    WIND        PRES    WAVE   SWELL
                       AIR SEA DIR/SP/G            HT/PER HT/PER/DIR
                 (UTC) (F)     (DEG/KT/KT) (MB)    (FT/S) (FT/S/D)
BUOY 41004       1850   82 84  220/ 12/ 14 1013.0F   3/ 7   2/ 7
BUOY 41008       1850   81 83  180/  8/ 10 1013.8F   1/ 4   2/160/ 4
FOLLY BEACH CMAN 1900   83     220/ 15/ 17 1013.2F
CAPERS NEARSHORE 1808   83     230/ 10/ 14 1013.8F
FRIPP NEARSHORE  1800   82     210/ 16/ 17 1013.7F


STATION/POSITION TIME  TEMP    WIND        PRES    WAVE   SWELL
                       AIR SEA DIR/SP/G            HT/PER HT/PER/DIR
                 (UTC) (F)     (DEG/KT/KT) (MB)    (FT/S) (FT/S/D)
5E ST. MARYS GA  1821      86                N/A     2/ 5
FRYING PAN BUOY  1850   84 85  260/  8/ 10 1013.4F   3/ 6   2/160/ 6
BUOY 41025       1850   82 86   10/  8/ 10 1012.3R   4/ 9   3/150/ 9
CAPE LOOKOUT NC  1900   85     230/  6/  8 1011.8R
BUOY 41002       1850   82 81  250/ 17/ 21 1015.4S   7/ 8
BUOY 41010       1820   83 84  190/ 12/ 14 1017.6R
ST AUGUSTINE FL  1900   82 83  110/  9/  9 1014.4F


$$



USA.gov is the U.S. government's official web portal to all federal, state and local government web resources and services.